Regional Weather Roundup
Issued by NWS

Home | Current Version | Previous Version | Text Only | Print | Product List | Glossary Off
Versions: 1 2 3 4 5 6 7 8 9 10 11 12 13 14 15 16 17 18 19 20 21 22 23 24 25 26 27 28 29 30 31 32 33 34 35 36 37 38 39 40 41 42 43 44 45 46 47 48 49 50

000
ASUS43 KLSX 290307
RWRMO

WEATHER SUMMARY FOR MISSOURI
NATIONAL WEATHER SERVICE SPRINGFIELD MO
1000 PM CDT THU JUL 28 2016

NOTE: "FAIR" INDICATES FEW OR NO CLOUDS BELOW 12,000 FEET WITH NO
       SIGNIFICANT WEATHER AND/OR OBSTRUCTIONS TO VISIBILITY.
       CURRENT SKY AND/OR WEATHER CONDITIONS ARE NOT AVAILABLE FOR
       CHILLICOTHE AND FARMINGTON.

MOZ001>031-035>038-043-044-053-054-290400-
...NORTHERN AND WESTERN MISSOURI...

CITY           SKY/WX    TMP DP  RH WIND       PRES   REMARKS
KANSAS CTY INT MOCLDY    75  66  73 NW5       30.00R
KANSAS C DTWN  CLEAR     82  65  56 N6        29.97R
LEE`S SUMMIT   CLEAR     78  67  68 N6        29.98R
ST JOSEPH      CLOUDY    74  67  78 N5        29.99R
CHILLICOTHE      N/A     75  66  73 CALM      29.98R
KIRKSVILLE     CLEAR     67  64  90 CALM      29.98R

$$
MOZ066>068-077>081-088>096-101>105-290400-
...SOUTHWEST MISSOURI...

CITY           SKY/WX    TMP DP  RH WIND       PRES   REMARKS
SPRINGFIELD    PTCLDY    76  70  82 CALM      29.95R
JOPLIN         PTCLDY    76  72  87 NW3       29.97R
BRANSON        CLEAR     75  72  88 CALM      29.97R

$$
MOZ032>034-039>042-045>050-055>058-069>072-290400-
...CENTRAL MISSOURI...

CITY           SKY/WX    TMP DP  RH WIND       PRES   REMARKS
COLUMBIA       CLEAR     73  71  93 CALM      29.95R
JEFFERSON CITY CLEAR     73  70  90 CALM      29.94R
ROLLA          CLOUDY    71  69  93 CALM      29.95R
SEDALIA        PTCLDY    77  72  84 SE3       29.96R
WHITEMAN AFB   PTCLDY    77  73  87 CALM      29.95
OSAGE BEACH    PTCLDY    74  73  97 CALM      29.96R

$$
MOZ051-052-059>065-290400-
...EAST CENTRAL MISSOURI...

CITY           SKY/WX    TMP DP  RH WIND       PRES   REMARKS
ST LOUIS INTL  MOCLDY    81  71  71 N7        29.92R
SPIRIT OF STL  CLOUDY    79  74  84 CALM      29.90R
ST CHARLES     PTCLDY    78  74  87 N3        29.90R

$$
MOZ072>076-082>087-097>100-106>115-290400-
...SOUTH CENTRAL AND SOUTHEAST MISSOURI...

CITY           SKY/WX    TMP DP  RH WIND       PRES   REMARKS
CAPE GIRARDEAU LGT RAIN  74  71  91 SW9       29.90S
FARMINGTON     MOCLDY    75  71  87 CALM      29.95R
POPLAR BLUFF   CLOUDY    76  73  91 SW5       29.93S
WEST PLAINS    MOCLDY    71  67  87 CALM      29.99R

$$


USA.gov is the U.S. government's official web portal to all federal, state and local government web resources and services.